This demonstration page uses our WeatherBlox Daily Observations layout. Learn more.

Left ArrowRight Arrow

39.92423, -83.80882

Hourly Observations for March 11, 2019

Temp ( °F °C ) Dew Point ( °F °C ) Humidity (%) Winds ( mph kmh ) Pressure ( in mb ) Visibility ( mi km ) Precip ( " mm )
12:56 am 00:56 Clear 36 2.2 33 0.6 89 89 W 13 20 30.25 1024 10 16.0934 0 0
1:56 am 01:56 Clear 35 1.7 33 0.6 93 93 W 12 19 30.26 1025 10 16.0934 0 0
2:56 am 02:56 Clear 35 1.7 32 0 89 89 W 12 19 30.28 1025 10 16.0934 0 0
3:56 am 03:56 Clear 34 1.1 32 0 92 92 W 10 17 30.28 1025 10 16.0934 0 0
4:56 am 04:56 Clear 34 1.1 31 -0.6 89 89 WSW 12 19 30.28 1025 10 16.0934 0 0
5:56 am 05:56 Clear 33 0.6 30 -1.1 89 89 W 12 19 30.3 1026 10 16.0934 0 0
6:56 am 06:56 Clear 32 0 29 -1.7 88 88 W 8 13 30.32 1027 10 16.0934 0 0
7:56 am 07:56 Sunny 32 0 28 -2.2 85 85 WSW 8 13 30.32 1027 10 16.0934 0 0
8:56 am 08:56 Sunny 33 0.6 28 -2.2 82 82 W 7 11 30.33 1027 10 16.0934 0 0
9:56 am 09:56 Sunny 36 2.2 27 -2.8 70 70 W 13 20 30.33 1027 10 16.0934 0 0
10:56 am 10:56 Sunny 39 3.9 26 -3.3 60 60 WNW 13 20 30.34 1028 10 16.0934 0 0
11:56 am 11:56 Sunny 42 5.6 25 -3.9 51 51 WNW 16 26 30.35 1028 10 16.0934 0 0
12:56 pm 12:56 Sunny 43 6.1 25 -3.9 49 49 NW 15 24 30.35 1028 10 16.0934 0 0
1:56 pm 13:56 Sunny 45 7.2 28 -2.2 52 52 W 18 30 30.35 1028 10 16.0934 0 0
2:56 pm 14:56 Sunny 46 7.8 26 -3.3 46 46 NW 14 22 30.34 1028 10 16.0934 0 0
3:56 pm 15:56 Cloudy 46 7.8 28 -2.2 50 50 NNW 14 22 30.32 1027 10 16.0934 0 0
4:56 pm 16:56 Cloudy 44 6.7 31 -0.6 60 60 WNW 13 20 30.34 1028 10 16.0934 0 0
5:56 pm 17:56 Sunny 44 6.7 31 -0.6 60 60 WNW 16 26 30.34 1028 10 16.0934 0 0
6:56 pm 18:56 Sunny 43 6.1 31 -0.6 63 63 WNW 12 19 30.34 1028 10 16.0934 0 0
7:56 pm 19:56 Clear 39 3.9 30 -1.1 70 70 NW 8 13 30.35 1028 10 16.0934 0 0
8:56 pm 20:56 Clear 36 2.2 29 -1.7 76 76 W 6 9 30.36 1028 10 16.0934 0 0
9:56 pm 21:56 Clear 34 1.1 30 -1.1 85 85 W 6 9 30.37 1029 10 16.0934 0 0
11:56 pm 23:56 Clear 32 0 29 -1.7 88 88 W 7 11 30.38 1029 10 16.0934 0 0

Powered by AerisWeather